Hourly Data Report for September 20, 2017

All times are specified in Local Standard Time (LST). Add 1 hour to adjust for Daylight Saving Time where and when it is observed.

POINT LEPREAU CS
NEW BRUNSWICK

45°04'23.040" N
66°26'57.090" W
6.00 m
8104201
71699
WPE

Download Data

Hourly Data (September 2017)
Hourly Data Report for September 20, 2017
Temp Definition
°C
Dew Point Temp Definition
°C
Rel Hum Definition
%
Wind Dir Definition
10's deg

Wind Spd Definition
km/h
Visibility Definition
km
Stn Press Definition
kPa
Hmdx Definition


Wind Chill Definition


Weather Definition


TIME
00:00 17.7 17.7 100 6 10   101.84     LegendNANA
01:00 17.5 LegendMM 100 6 9   101.80     LegendNANA
02:00 17.2 LegendMM 100 6 12   101.74     LegendNANA
03:00 17.6 LegendMM 100 6 11   101.72     LegendNANA
04:00 18.1 LegendMM 100 6 13   101.67     LegendNANA
05:00 18.9 LegendMM 100 7 10   101.63     LegendNANA
06:00 18.9 LegendMM 100 4 9   101.64     LegendNANA
07:00 19.2 LegendMM 100 6 9   101.64     LegendNANA
08:00 19.2 LegendMM 100 6 11   101.62     LegendNANA
09:00 19.2 LegendMM 100 6 13   101.63     LegendNANA
10:00 20.2 LegendMM 100 5 12   101.58     LegendNANA
11:00 20.4 19.6 95 7 8   101.54 28   LegendNANA
12:00 21.0 20.2 95 4 9   101.49 29   LegendNANA
13:00 24.1 20.4 80 7 11   101.45 32   LegendNANA
14:00 21.0 18.8 87 8 13   101.41 28   LegendNANA
15:00 23.2 19.3 78 8 12   101.34 30   LegendNANA
16:00 22.4 18.8 80 8 10   101.32 29   LegendNANA
17:00 21.0 18.1 84 6 11   101.34 27   LegendNANA
18:00 20.3 18.2 88 5 8   101.35 26   LegendNANA
19:00 19.7 18.3 91 5 12   101.37     LegendNANA
20:00 20.2 18.6 91 4 8   101.37 27   LegendNANA
21:00 19.8 18.5 93 3 6   101.40     LegendNANA
22:00 19.8 18.8 94 4 8   101.46     LegendNANA
23:00 19.6 18.8 95 4 8   101.50     LegendNANA

Notes on Data Quality.

Legend

  • E = Estimated
  • M = Missing
  • NA = Not Available
  • ‡ = Partner data that is not subject to review by the National Climate Archives
Date modified: